EA3DKP Weather Reports


Display with metric or nautical units.
time (UTC)temp
F
wind
direction
speed
MPH
gust
MPH
rain 1hr
in
rain 24hr
in
rain mn
in
humidity
%
barometer
mb
20260506154547 62 181 0.0 0.0 0.00 0.00 0.00 70 1010.0
20260506153040 62 201 0.0 0.0 0.00 0.00 0.00 69 1009.4
20260506151537 63 207 0.0 0.0 0.00 0.00 0.00 67 1009.1
20260506150036 64 219 0.0 0.0 0.00 0.00 0.20 67 1009.1
20260506144549 65 360 0.0 0.0 0.00 0.00 0.20 65 1009.2
20260506143034 66 360 0.0 0.0 0.00 0.00 0.20 62 1009.2
20260506141531 66 279 0.0 0.0 0.00 0.00 0.20 63 1009.2
20260506140023 66 266 0.0 0.0 0.00 0.00 0.20 62 1009.4
20260506134522 66 234 0.0 0.0 0.00 0.00 0.20 62 1009.6
20260506133020 66 360 0.0 0.0 0.00 0.00 0.20 61 1009.7
20260506131524 66 242 0.0 0.0 0.00 0.00 0.20 62 1009.7
20260506130019 65 360 0.0 0.0 0.00 0.00 0.20 65 1009.8
20260506124516 63 220 0.0 0.0 0.00 0.00 0.20 68 1010.0
20260506123016 63 360 0.0 0.0 0.00 0.00 0.20 71 1010.2
20260506121506 63 360 0.0 0.0 0.00 0.00 0.20 71 1010.2
20260506120015 63 360 0.0 0.0 0.00 0.00 0.20 69 1010.3
20260506114506 64 360 0.0 0.0 0.00 0.00 0.20 60 1010.2
20260506113004 64 360 0.0 0.0 0.00 0.00 0.20 66 1010.2
20260506111504 64 360 0.0 0.0 0.00 0.00 0.20 70 1010.3
20260506110002 64 360 0.0 0.0 0.00 0.00 0.20 65 1010.3
20260506104501 65 360 0.0 0.0 0.00 0.00 0.20 64 1010.4
20260506103059 64 360 0.0 0.0 0.00 0.00 0.20 68 1010.4
20260506101546 63 360 0.0 0.0 0.00 0.00 0.20 68 1010.6
20260506100045 63 360 0.0 0.0 0.00 0.00 0.20 68 1010.7
20260506094548 63 360 0.0 0.0 0.00 0.00 0.20 71 1010.8
20260506093044 62 360 0.0 0.0 0.00 0.00 0.20 71 1010.8
20260506091542 62 360 0.0 0.0 0.00 0.00 0.20 71 1010.6
20260506090040 62 64 0.0 0.0 0.00 0.00 0.20 73 1010.4
20260506084538 62 65 0.0 0.0 0.00 0.00 0.20 73 1010.4
20260506083038 61 66 0.0 0.0 0.00 0.00 0.20 74 1010.3
20260506081524 60 66 0.0 0.0 0.00 0.00 0.20 79 1010.2
20260506073023 58 360 0.0 0.0 0.00 0.00 0.20 87 1010.2
20260506071522 57 360 0.0 0.0 0.00 0.00 0.20 88 1010.1
20260506061507 54 360 0.0 0.0 0.00 0.00 0.20 87 1010.0
20260506044502 52 360 0.0 0.0 0.00 0.00 0.20 87 1009.0
20260506043003 51 360 0.0 0.0 0.00 0.00 0.20 87 1008.8
20260506041555 51 360 0.0 0.0 0.00 0.00 0.20 87 1008.7
20260506040051 51 360 0.0 0.0 0.00 0.00 0.20 87 1008.8
20260506034553 51 360 0.0 0.0 0.00 0.00 0.20 87 1008.8
20260506033101 51 360 0.0 0.0 0.00 0.00 0.20 87 1008.8
20260506031552 51 360 0.0 0.0 0.00 0.00 0.20 87 1008.7
20260506030058 51 360 0.0 0.0 0.00 0.00 0.20 86 1008.7
20260506024602 50 360 0.0 0.0 0.00 0.00 0.20 86 1008.6
20260506023047 51 360 0.0 0.0 0.00 0.00 0.20 86 1008.5
20260506021541 51 360 0.0 0.0 0.00 0.00 0.20 85 1008.5
20260506020031 52 360 0.0 0.0 0.00 0.00 0.20 86 1008.4
20260506014531 52 360 0.0 0.0 0.00 0.00 0.20 86 1008.4
20260506013034 52 360 0.0 0.0 0.00 0.00 0.20 86 1008.5
20260506011553 53 360 0.0 0.0 0.00 0.00 0.20 86 1008.3
20260506010030 52 360 0.0 0.0 0.00 0.00 0.20 86 1008.5
20260506004540 52 360 0.0 0.0 0.00 0.00 0.20 86 1008.6
20260506003031 52 360 0.0 0.0 0.00 0.00 0.20 86 1008.6
20260506001530 53 360 0.0 0.0 0.00 0.00 0.20 85 1008.7
20260506000009 53 360 0.0 0.0 0.00 0.00 0.20 85 1008.8
20260505234509 53 360 0.0 0.0 0.00 0.00 0.20 85 1009.0
20260505233048 54 360 0.0 0.0 0.00 0.00 0.20 83 1009.3
20260505231548 54 360 0.0 0.0 0.00 0.00 0.20 82 1009.4
20260505230036 55 360 0.0 0.0 0.00 0.00 0.20 81 1009.1
20260505224536 56 360 0.0 0.0 0.00 0.00 0.20 79 1009.3
20260505223035 56 360 0.0 0.0 0.00 0.00 0.20 80 1009.2
20260505221535 55 360 0.0 0.0 0.00 0.00 0.20 81 1009.4
20260505220051 56 360 0.0 0.0 0.00 0.00 0.20 81 1009.5
20260505214534 56 49 0.0 0.0 0.00 0.00 0.20 81 1009.7
20260505213038 55 360 0.0 0.0 0.00 0.00 0.20 83 1009.7
20260505211538 55 50 0.0 0.0 0.00 0.00 0.20 84 1009.7
20260505210018 55 56 0.0 0.0 0.00 0.00 0.20 85 1009.5
20260505204519 54 150 0.0 0.0 0.00 0.00 0.20 86 1009.3
20260505203015 54 360 0.0 0.0 0.00 0.00 0.20 86 1009.3
20260505201517 54 360 4.0 0.0 0.00 0.00 0.20 86 1009.2
20260505200013 54 360 4.0 0.0 0.00 0.00 0.20 85 1009.1
20260505194518 55 360 2.0 0.0 0.00 0.00 0.20 84 1009.2
20260505193006 57 360 4.0 0.0 0.00 0.00 0.12 81 1009.3
20260505191504 57 360 2.0 0.0 0.00 0.00 0.05 82 1009.2
20260505190047 61 169 2.0 0.0 0.00 0.00 0.05 84 1008.6
20260505184551 62 204 1.0 0.0 0.00 0.00 0.04 83 1008.2
20260505183050 62 205 2.0 0.0 0.00 0.00 0.04 82 1008.0
20260505181544 62 200 0.0 0.0 0.00 0.00 0.04 82 1008.1
20260505180042 62 200 0.0 0.0 0.00 0.00 0.04 82 1008.2
20260505174543 62 200 0.0 0.0 0.00 0.00 0.04 82 1008.0
20260505173042 62 200 3.0 0.0 0.00 0.00 0.04 82 1007.7
20260505171544 62 216 2.0 0.0 0.00 0.00 0.04 82 1007.6
20260505170031 62 209 2.0 0.0 0.00 0.00 0.04 83 1007.6
20260505164541 62 215 3.0 0.0 0.00 0.00 0.04 82 1007.6
20260505163024 62 218 6.0 0.0 0.00 0.00 0.04 80 1007.8
20260505161521 63 219 3.0 0.0 0.00 0.00 0.01 78 1008.0